Temperature
23 22 22 22 22 22 21 21 21 20 20 20 19 19 19 19 19 19 19 19 19 19 19 19 18 18 18 18 18 18 18 18 18 18 18 18 18 18 18 18 18 18 18
22 22 22 22 22 22 21 21 21 20 20 20 19 19 19 19 19 19 19 19 19 19 19 18 18 18 18 18 18 18 18 18 18 18 18 18 18 18 18 18 18 18 18
23 22 22 22 22 22 21 21 20 20 20 20 19 19 19 19 19 19 19 18 18 18 18 18 18 18 18 18 18 18 18 18 18 18 18 18 18 18 18 18 18 18 18
23 23 22 22 22 21 21 21 21 20 20 20 19 19 19 19 19 18 18 18 18 18 18 18 18 18 18 18 18 18 18 18 18 18 18 18 17 17 17 17 17 17 17
23 23 22 22 22 21 21 21 20 20 20 19 19 19 19 19 19 18 18 18 18 18 18 18 18 18 18 18 18 18 17 17 17 17 17 17 17 17 17 17 17 17 17
23 22 22 22 22 21 21 21 20 20 20 19 19 19 19 19 19 19 18 18 18 18 18 18 18 18 18 18 18 17 17 17 17 17 17 17 17 17 17 17 17 17 17
23 22 22 22 21 21 21 21 21 20 20 19 19 19 19 19 19 19 18 18 18 18 18 18 18 18 18 18 17 17 17 17 17 17 17 17 17 17 17 17 17 16 16
22 22 22 22 22 21 21 21 20 20 20 20 19 19 19 19 19 18 18 18 18 18 18 18 17 17 17 17 17 17 17 17 17 17 16 17 16 16 16 16 16 16 16
22 22 22 22 22 22 21 21 20 20 20 20 19 19 19 19 18 18 18 18 18 17 17 17 17 17 17 17 17 17 17 17 17 16 16 16 16 16 16 16 16 16 16
22 22 22 22 22 22 21 21 20 20 20 20 19 19 19 18 18 18 18 18 17 17 17 17 17 17 17 17 17 17 16 16 16 16 16 16 16 16 16 16 16 16 16
22 22 22 22 22 21 21 20 20 20 20 19 19 19 18 18 18 18 18 17 17 17 17 17 17 17 16 16 16 16 16 16 16 16 15 16 16 15 15 15 15 15 15
22 22 22 21 21 21 20 20 20 19 19 19 19 18 18 18 18 18 17 17 17 17 17 16 16 16 16 16 16 16 16 16 15 15 15 15 15 15 15 15 15 15 15
22 22 22 21 21 20 20 20 19 19 19 19 18 18 18 18 17 17 17 17 17 17 16 16 16 16 16 16 16 15 15 15 15 15 15 15 15 15 15 15 14 14 14
22 22 21 21 21 20 20 20 19 19 19 18 18 18 18 17 17 17 17 17 16 16 16 16 16 15 15 15 15 15 15 15 15 15 15 15 15 14 14 14 14 14 14
21 21 21 21 20 20 20 19 19 18 18 18 18 17 17 17 17 17 16 16 16 16 15 15 15 15 15 15 15 15 14 14 14 14 14 14 14 14 14 14 14 14 14
21 21 21 20 20 20 19 19 19 18 18 18 17 17 17 17 16 16 16 16 16 15 15 15 15 15 15 15 14 14 14 14 14 14 14 14 14 14 14 14 13 13 13
21 21 21 20 20 20 19 19 18 18 18 18 17 17 17 16 16 16 16 15 15 15 15 15 15 15 14 14 14 14 14 14 14 14 14 14 14 14 13 13 13 13 13
21 21 21 20 20 20 19 18 18 18 17 17 17 17 16 16 16 15 15 15 15 15 15 15 14 14 14 14 14 14 14 14 14 13 13 13 13 13 13 13 13 13 13
21 21 21 20 20 19 19 18 18 17 17 17 16 16 16 16 15 15 15 15 14 14 14 14 14 14 14 14 13 13 13 13 13 13 13 13 13 13 13 13 13 13 13
21 21 20 20 19 19 18 18 18 17 17 16 16 16 15 15 15 15 15 14 14 14 14 14 13 13 13 13 13 13 13 13 13 13 13 12 12 12 12 12 12 12 12
21 20 20 19 19 18 18 18 17 17 16 16 16 15 15 15 15 14 14 14 14 14 14 13 13 13 13 13 13 12 12 12 12 12 12 12 12 12 12 12 12 12 12
20 19 19 18 18 18 18 18 17 16 16 16 15 15 15 15 14 14 14 14 14 14 13 13 13 13 12 12 12 12 12 12 12 12 12 12 12 12 12 12 11 11 11
19 19 18 18 18 18 18 17 16 16 15 15 15 15 15 14 14 14 14 13 13 13 13 13 12 12 12 12 12 12 12 12 12 11 11 11 11 12 11 11 11 11 11
19 18 18 17 17 17 17 16 16 16 15 15 15 14 14 14 14 13 13 13 13 13 12 12 12 12 12 12 12 12 12 11 11 11 11 11 11 11 11 11 11 11 11
18 18 18 17 17 16 16 16 16 15 15 15 14 14 14 14 13 13 13 13 12 12 12 12 12 12 12 11 11 11 11 11 11 11 11 11 11 11 11 10 10 10 10
18 17 17 17 16 16 16 15 15 15 15 14 14 14 13 13 13 13 13 12 12 12 12 12 11 11 11 11 11 11 11 11 10 10 10 10 10 10 10 10 10 10 10
Wind_Speed
7 7 8 8 7 6 5 4 4 3 3 3 2 2 1 1 1 1 2 2 2 2 2 2 1 2 2 1 1 1 1 1 1 2 2 3 2 0 1 1 1 2 2
6 6 7 7 7 7 5 4 4 3 3 2 2 2 2 1 1 1 1 2 2 2 2 2 2 2 2 2 1 1 1 1 1 1 1 2 3 3 1 0 1 1 1
11 9 8 6 7 7 6 5 4 4 3 3 3 2 2 2 2 1 0 0 1 1 2 2 2 1 2 1 0 1 2 0 1 1 2 2 2 2 3 1 0 0 1
10 9 8 8 8 7 7 5 5 4 3 3 3 4 3 2 1 1 0 0 1 1 2 2 2 1 1 1 0 1 1 2 0 1 1 1 2 1 1 3 2 1 1
12 11 10 10 9 8 7 6 5 4 3 3 3 3 2 1 1 1 1 1 1 1 1 1 1 1 1 1 1 1 2 2 1 0 1 1 1 1 2 1 3 2 1
12 11 11 9 8 7 6 6 5 4 3 4 3 4 3 2 2 2 1 1 1 2 1 1 1 1 1 0 0 1 1 1 1 1 1 1 0 1 1 2 1 1 2
11 10 11 10 9 8 7 7 6 5 4 4 3 3 3 3 3 2 1 1 0 1 1 1 0 0 0 1 1 1 1 1 1 1 0 0 0 1 1 2 1 0 2
10 11 11 11 10 9 8 7 6 5 4 4 3 2 2 2 1 1 1 1 1 1 1 1 0 0 1 1 1 1 1 1 1 1 1 1 0 0 1 2 2 1 2
11 10 10 9 9 9 9 9 8 6 5 4 4 3 2 2 2 1 1 0 0 0 1 0 1 0 1 1 1 1 1 1 1 1 1 1 1 1 1 1 2 3 1
10 10 9 9 8 8 8 8 8 7 5 5 4 4 3 2 2 1 1 0 0 1 1 1 1 1 1 1 1 1 1 1 1 1 2 2 1 1 2 1 1 1 3
11 10 9 8 7 6 6 6 7 6 5 5 4 3 3 2 1 1 1 1 0 0 1 0 1 1 1 1 1 1 1 1 1 1 1 1 1 2 2 2 2 1 2
8 9 8 7 6 6 5 5 5 5 4 4 3 2 2 1 1 0 0 0 1 1 1 1 1 1 1 0 1 0 0 0 0 1 1 1 1 1 1 1 1 0 1
7 7 7 7 6 6 5 5 5 5 4 4 4 3 3 2 2 1 0 1 1 1 1 1 1 1 0 0 0 1 1 1 1 1 1 1 0 1 1 0 0 1 0
8 8 7 6 6 6 5 5 5 5 5 5 4 4 3 2 2 1 1 1 1 1 1 1 1 1 0 0 0 0 1 1 1 1 1 1 1 1 1 1 1 1 0
9 8 7 6 6 5 5 5 5 4 5 6 5 4 3 3 2 2 2 2 2 1 1 1 0 1 0 0 0 0 0 1 1 1 1 2 1 0 1 1 1 1 1
9 8 8 8 7 6 5 5 5 4 5 6 5 3 3 3 2 2 2 3 3 2 2 2 2 2 2 3 2 1 0 0 0 2 2 2 1 2 2 2 1 2 2
10 9 8 7 7 7 7 6 5 5 5 5 4 3 3 3 2 2 3 2 2 2 2 2 2 2 3 4 3 2 1 0 1 1 1 2 2 2 2 3 3 3 2
10 9 8 7 7 7 7 6 6 6 5 4 4 3 3 3 2 2 2 2 1 2 2 2 2 1 3 4 4 3 2 1 1 1 1 1 2 2 1 2 3 3 3
10 8 8 8 8 8 8 8 6 6 5 4 3 3 3 3 2 2 1 1 1 1 1 1 2 2 3 5 5 4 2 2 2 2 1 1 2 3 3 1 2 4 5
8 8 7 8 8 7 8 9 7 5 4 3 3 3 3 3 2 1 0 0 1 1 1 2 2 2 2 5 6 4 2 2 2 3 3 3 3 4 3 1 2 4 5
9 9 9 7 7 7 8 8 6 4 3 3 3 3 2 2 2 1 1 1 2 2 2 2 2 2 3 4 5 4 2 1 2 2 3 4 6 5 5 3 3 6 5
9 9 8 7 6 7 8 7 5 4 4 4 3 2 1 1 2 2 2 2 2 2 2 2 2 2 3 3 4 4 3 2 1 2 3 4 7 7 6 4 5 6 4
8 7 8 7 5 5 7 7 4 4 5 4 3 2 1 1 2 3 2 2 2 2 1 1 1 2 3 3 5 5 4 3 2 3 5 7 7 7 5 6 7 4 2
8 8 9 8 6 5 6 6 5 5 5 4 2 2 2 1 2 2 2 2 1 1 1 1 1 2 2 3 4 4 4 5 4 4 6 7 7 6 5 5 4 3 2
7 8 9 8 7 5 5 5 5 6 5 4 2 1 1 1 1 1 1 1 1 2 2 1 1 0 2 4 3 2 3 3 3 3 3 4 4 5 5 4 4 3 3
8 9 8 8 7 6 5 4 4 6 6 3 2 1 1 1 1 1 1 2 0 0 1 2 2 2 3 3 3 3 4 4 3 2 2 3 3 3 4 4 4 3 3
Wind_Direction
175 160 155 146 141 135 125 124 119 118 107 102 98 89 70 65 81 93 101 109 107 105 115 110 79 76 91 98 85 73 48 18 41 53 7 1 8 55 221 198 167 185 194
169 165 165 161 152 145 140 134 138 137 130 143 147 140 144 151 139 119 79 97 102 99 116 119 117 105 90 62 50 71 45 1 46 98 70 360 353 353 358 39 170 196 184
173 173 172 163 149 146 148 143 147 141 142 132 115 105 69 43 39 39 26 45 125 117 100 124 126 113 108 107 53 92 100 26 357 83 131 139 242 307 333 324 305 158 160
172 166 159 157 157 159 154 145 143 144 145 128 127 131 133 144 199 191 149 8 50 75 92 101 117 109 92 93 37 98 115 121 19 338 34 165 169 167 304 329 338 310 209
172 165 165 167 167 164 160 156 146 146 140 123 129 130 132 150 126 88 65 34 21 46 67 77 106 110 100 103 72 69 85 103 117 119 317 15 36 115 161 278 324 344 323
168 168 168 162 164 166 162 157 147 147 144 131 128 131 133 122 101 86 88 44 16 13 16 61 94 119 101 91 155 104 82 81 90 101 89 113 144 222 164 197 263 297 304
164 165 164 164 166 168 168 160 153 153 153 143 142 143 140 129 135 147 150 131 46 4 325 7 79 100 123 107 95 88 64 63 80 71 102 124 174 177 166 161 189 309 310
167 169 170 171 170 168 166 162 161 163 162 153 160 143 133 135 136 151 158 177 207 238 285 293 97 130 117 94 91 74 55 70 69 31 30 36 345 118 152 170 156 89 343
169 169 168 169 170 170 171 169 168 167 171 167 154 141 140 137 144 156 149 185 265 274 317 319 72 92 83 86 93 73 34 61 52 10 28 29 3 41 64 137 154 158 183
165 168 172 171 172 175 174 169 169 172 176 174 169 157 162 168 170 147 155 159 337 1 27 32 58 68 70 75 72 39 6 48 16 27 41 21 26 34 42 58 75 131 167
169 169 169 170 168 167 169 165 168 169 173 173 172 166 170 166 143 138 183 176 92 64 57 92 114 94 71 54 67 42 39 48 17 9 37 16 43 46 28 37 46 57 134
161 158 157 153 150 152 157 161 165 169 177 167 161 159 151 128 100 35 262 131 85 41 47 75 110 95 54 58 105 113 317 171 212 306 19 345 34 42 11 47 43 18 177
147 146 148 148 148 147 147 149 150 156 153 146 147 142 137 132 141 200 60 79 89 54 47 83 105 113 197 150 189 205 232 227 236 241 207 248 107 326 310 353 7 299 345
150 146 149 150 144 141 137 134 138 145 140 130 128 128 134 138 145 119 68 58 75 63 51 100 153 168 226 190 240 231 225 253 273 252 219 216 197 227 249 272 257 263 324
148 149 144 140 134 128 126 131 129 121 123 120 118 123 135 124 109 91 60 38 39 34 13 36 328 289 313 291 182 257 346 268 288 299 289 259 216 165 207 254 235 211 248
154 150 143 141 142 137 134 133 129 126 120 123 128 131 117 101 93 76 53 44 31 18 22 25 19 359 349 8 28 81 14 352 292 288 297 301 317 334 325 314 269 207 216
159 155 154 153 152 150 146 145 137 126 120 122 123 121 113 97 85 72 57 45 28 24 18 16 23 356 349 10 22 42 97 356 295 281 298 312 331 348 340 326 333 319 284
159 157 155 148 146 146 137 131 124 122 119 116 115 115 112 104 95 81 66 36 21 21 16 360 352 359 3 23 28 39 46 11 322 280 253 285 307 326 339 336 341 325 307
157 158 154 142 133 133 132 124 119 119 117 118 117 118 119 115 108 91 62 15 34 23 5 353 19 37 6 19 29 48 40 9 335 320 331 308 290 313 330 349 320 316 313
140 138 133 123 124 131 131 126 127 125 132 137 137 135 129 129 135 138 96 15 63 27 20 31 33 43 25 23 34 45 54 15 336 333 332 327 320 317 324 289 277 291 292
130 126 123 126 131 130 126 126 129 144 153 130 119 119 127 141 146 118 81 72 56 43 37 37 14 25 22 15 26 40 53 13 324 324 322 322 331 325 316 292 260 266 277
125 126 126 126 124 126 130 132 143 153 128 115 112 118 129 141 112 102 79 75 72 56 36 29 8 1 2 13 5 15 21 17 339 304 309 316 323 321 314 303 290 295 294
131 129 127 121 113 119 129 133 142 131 118 112 119 122 102 79 94 103 92 71 68 73 49 42 8 343 350 350 352 350 346 350 344 308 312 318 318 317 317 312 311 315 315
132 129 126 125 122 121 121 130 132 123 114 113 111 101 87 57 56 79 89 95 97 89 67 45 343 328 339 341 342 341 344 351 353 340 329 329 332 337 328 328 329 324 309
131 130 134 133 131 128 124 122 122 119 116 115 115 95 82 93 66 70 102 136 174 177 169 207 223 251 308 296 305 333 330 327 322 336 350 358 357 356 350 341 333 331 337
133 132 135 137 139 139 133 131 133 132 131 130 135 145 141 119 112 116 55 32 69 246 192 196 192 230 251 293 325 331 334 339 0 45 14 351 341 334 332 331 329 331 324
Height
1505 1507 1507 1507 1508 1508 1508 1508 1508 1508 1508 1508 1507 1507 1507 1507 1507 1507 1507 1507 1507 1506 1506 1505 1505 1504 1504 1504 1503 1503 1503 1503 1503 1503 1503 1503 1503 1502 1502 1502 1501 1501 1501
1505 1506 1507 1507 1507 1508 1508 1509 1509 1508 1508 1508 1508 1508 1508 1507 1508 1507 1507 1507 1507 1506 1506 1506 1505 1505 1504 1504 1504 1503 1503 1503 1502 1502 1502 1502 1503 1502 1502 1501 1500 1500 1500
1501 1504 1505 1507 1507 1508 1508 1509 1509 1509 1509 1509 1509 1509 1508 1508 1508 1507 1507 1507 1507 1506 1506 1505 1505 1504 1504 1504 1503 1503 1503 1502 1502 1502 1502 1502 1501 1501 1501 1500 1500 1500 1500
1500 1502 1504 1506 1506 1507 1508 1508 1509 1509 1509 1509 1509 1509 1508 1507 1507 1507 1507 1507 1506 1506 1506 1505 1505 1504 1504 1503 1503 1503 1502 1502 1502 1502 1502 1502 1501 1501 1500 1500 1499 1499 1499
1498 1500 1502 1504 1505 1506 1507 1508 1508 1509 1509 1509 1509 1508 1508 1508 1507 1507 1507 1506 1506 1506 1505 1505 1504 1504 1503 1503 1502 1502 1501 1501 1501 1501 1501 1500 1500 1500 1499 1499 1499 1499 1498
1497 1499 1501 1503 1504 1506 1507 1507 1508 1508 1508 1508 1508 1508 1507 1507 1507 1506 1506 1506 1505 1505 1505 1504 1503 1503 1502 1502 1501 1501 1500 1500 1500 1500 1500 1499 1499 1499 1498 1498 1497 1497 1497
1496 1497 1499 1501 1503 1504 1505 1506 1506 1507 1507 1507 1507 1507 1507 1506 1506 1506 1505 1505 1504 1504 1503 1503 1503 1502 1502 1501 1501 1500 1500 1499 1499 1499 1498 1498 1498 1498 1497 1497 1496 1496 1496
1494 1495 1497 1499 1500 1502 1503 1504 1505 1505 1506 1506 1506 1506 1506 1506 1506 1505 1505 1504 1503 1503 1503 1502 1502 1501 1501 1500 1500 1499 1499 1498 1498 1498 1497 1497 1497 1497 1496 1496 1495 1495 1494
1492 1493 1496 1498 1499 1500 1502 1503 1504 1504 1505 1505 1505 1506 1506 1506 1505 1505 1504 1504 1503 1502 1502 1501 1501 1500 1500 1499 1499 1498 1498 1497 1497 1497 1496 1496 1496 1496 1495 1495 1494 1494 1493
1490 1493 1495 1496 1498 1499 1500 1502 1502 1503 1504 1504 1505 1505 1505 1505 1505 1504 1503 1503 1502 1501 1501 1500 1499 1499 1499 1498 1498 1497 1497 1496 1496 1496 1495 1495 1494 1494 1494 1493 1493 1492 1492
1488 1491 1493 1495 1497 1498 1499 1500 1501 1502 1503 1503 1504 1504 1504 1504 1504 1503 1502 1502 1501 1500 1499 1499 1498 1498 1497 1497 1496 1496 1495 1495 1494 1494 1494 1493 1493 1492 1492 1492 1491 1490 1490
1488 1490 1492 1494 1495 1497 1498 1499 1500 1500 1501 1502 1503 1503 1503 1503 1503 1502 1502 1501 1500 1499 1499 1498 1497 1496 1496 1495 1495 1494 1494 1493 1493 1493 1492 1491 1491 1491 1490 1489 1489 1488 1488
1487 1489 1491 1493 1494 1495 1496 1497 1498 1499 1501 1502 1502 1502 1502 1502 1501 1501 1500 1500 1499 1498 1498 1497 1496 1495 1495 1494 1493 1493 1492 1492 1491 1491 1490 1490 1490 1489 1488 1487 1487 1486 1486
1486 1488 1490 1492 1493 1495 1495 1496 1498 1499 1500 1500 1501 1501 1501 1500 1500 1500 1499 1499 1498 1497 1496 1495 1495 1494 1493 1492 1491 1491 1490 1490 1490 1489 1489 1488 1487 1487 1486 1485 1485 1484 1484
1485 1487 1489 1491 1493 1494 1495 1497 1497 1498 1499 1499 1500 1500 1500 1500 1499 1499 1498 1498 1497 1496 1495 1494 1493 1492 1492 1491 1490 1489 1488 1488 1488 1487 1487 1486 1486 1485 1484 1484 1483 1482 1481
1485 1487 1488 1490 1492 1494 1495 1496 1497 1498 1499 1499 1499 1500 1499 1499 1499 1498 1498 1497 1496 1495 1494 1493 1492 1491 1490 1489 1488 1488 1487 1487 1486 1486 1485 1485 1484 1483 1482 1482 1481 1480 1479
1484 1485 1486 1488 1490 1492 1494 1495 1496 1497 1498 1498 1499 1499 1498 1498 1498 1498 1497 1496 1495 1494 1493 1492 1491 1489 1488 1488 1487 1486 1486 1485 1484 1484 1483 1483 1482 1481 1480 1479 1479 1478 1477
1481 1484 1485 1487 1489 1491 1493 1495 1496 1496 1497 1498 1498 1498 1498 1498 1497 1497 1496 1495 1494 1493 1491 1490 1489 1488 1487 1486 1485 1485 1484 1483 1483 1482 1481 1480 1480 1479 1478 1477 1476 1475 1474
1479 1482 1484 1486 1488 1489 1492 1494 1495 1495 1496 1497 1497 1497 1497 1497 1496 1496 1495 1494 1493 1492 1491 1489 1488 1487 1486 1485 1484 1483 1482 1481 1481 1480 1479 1478 1477 1477 1476 1475 1473 1472 1471
1479 1482 1484 1485 1487 1489 1491 1492 1493 1494 1495 1495 1496 1496 1496 1496 1495 1495 1494 1494 1492 1491 1490 1489 1488 1486 1485 1484 1483 1482 1481 1480 1479 1478 1477 1476 1475 1474 1473 1472 1471 1469 1468
1479 1482 1483 1485 1486 1488 1490 1491 1492 1494 1495 1495 1495 1495 1495 1495 1495 1494 1493 1493 1492 1490 1489 1488 1487 1486 1485 1483 1483 1482 1480 1479 1478 1476 1475 1474 1473 1472 1471 1469 1468 1467 1465
1479 1482 1483 1485 1486 1487 1489 1490 1491 1492 1493 1494 1495 1495 1495 1494 1494 1493 1492 1492 1491 1490 1488 1487 1486 1485 1484 1483 1482 1481 1479 1478 1477 1475 1474 1472 1471 1469 1468 1467 1465 1464 1462
1479 1481 1483 1484 1486 1487 1488 1489 1491 1492 1492 1493 1494 1494 1494 1493 1493 1492 1491 1491 1490 1489 1488 1486 1485 1484 1483 1482 1481 1480 1478 1477 1475 1474 1472 1471 1469 1467 1466 1465 1463 1461 1459
1478 1480 1482 1484 1485 1486 1488 1489 1490 1490 1491 1492 1492 1493 1493 1492 1492 1491 1490 1490 1489 1488 1487 1486 1485 1483 1482 1481 1480 1478 1477 1475 1473 1472 1470 1469 1467 1466 1464 1462 1461 1459 1457
1478 1480 1482 1483 1484 1485 1487 1489 1489 1490 1490 1491 1491 1492 1491 1491 1491 1490 1490 1489 1489 1488 1487 1485 1484 1483 1481 1480 1479 1477 1475 1473 1472 1470 1469 1467 1465 1464 1462 1460 1459 1457 1455
1478 1480 1482 1483 1485 1486 1487 1488 1489 1489 1489 1490 1490 1490 1490 1490 1489 1489 1489 1488 1488 1487 1486 1485 1484 1482 1481 1479 1477 1476 1474 1473 1471 1469 1467 1466 1464 1462 1460 1459 1457 1455 1453